Previsão horária em Cedry

Hoje, 25 Julho, Domingo

Tempo Temperatura Precipitação Vento Pressão Humidade
00:00 +19°C° 0 mm 1 m/s 746 mmHg 75%
01:00 +18°C° 0 mm 1 m/s 746 mmHg 77%
02:00 +17°C° 0 mm 2 m/s 746 mmHg 78%
03:00 +17°C° 0 mm 2 m/s 746 mmHg 78%
04:00 +16°C° 0 mm 2 m/s 746 mmHg 79%
05:00 +18°C° 0 mm 2 m/s 746 mmHg 74%
06:00 +20°C° 0 mm 3 m/s 746 mmHg 70%
07:00 +22°C° 0 mm 3 m/s 746 mmHg 66%
08:00 +24°C° 0 mm 3 m/s 746 mmHg 61%
09:00 +26°C° 0 mm 3 m/s 746 mmHg 56%
10:00 +27°C° 0 mm 4 m/s 747 mmHg 51%
11:00 +28°C° 0 mm 4 m/s 746 mmHg 47%
12:00 +29°C° 0 mm 4 m/s 746 mmHg 44%
13:00 +29°C° 0 mm 4 m/s 746 mmHg 41%
14:00 +29°C° 0 mm 4 m/s 746 mmHg 43%
15:00 +29°C° 0 mm 4 m/s 746 mmHg 44%
16:00 +29°C° 0 mm 4 m/s 746 mmHg 45%
17:00 +27°C° 0 mm 4 m/s 746 mmHg 49%
18:00 +26°C° 0 mm 4 m/s 746 mmHg 53%
19:00 +23°C° 0 mm 4 m/s 746 mmHg 57%
20:00 +22°C° 0 mm 4 m/s 746 mmHg 59%
21:00 +21°C° 0 mm 3 m/s 746 mmHg 62%
22:00 +20°C° 0 mm 3 m/s 746 mmHg 65%
23:00 +20°C° 0 mm 3 m/s 746 mmHg 65%

Amanhã, 26 Julho, Segunda-feira

Tempo Temperatura Precipitação Vento Pressão Humidade
00:00 +20°C° 0 mm 3 m/s 746 mmHg 66%
01:00 +19°C° 0 mm 3 m/s 746 mmHg 66%
02:00 +19°C° 0 mm 3 m/s 746 mmHg 69%
03:00 +18°C° 0 mm 3 m/s 746 mmHg 71%
04:00 +17°C° 0 mm 3 m/s 746 mmHg 74%
05:00 +19°C° 0 mm 4 m/s 746 mmHg 71%
06:00 +21°C° 0 mm 4 m/s 746 mmHg 69%
07:00 +22°C° 0 mm 5 m/s 746 mmHg 66%
08:00 +24°C° 0 mm 6 m/s 746 mmHg 59%
09:00 +27°C° 0 mm 6 m/s 746 mmHg 52%
10:00 +28°C° 0 mm 7 m/s 746 mmHg 46%
11:00 +29°C° 0 mm 7 m/s 746 mmHg 43%
12:00 +30°C° 0 mm 7 m/s 746 mmHg 41%
13:00 +32°C° 0 mm 7 m/s 746 mmHg 39%
14:00 +30°C° 0 mm 7 m/s 745 mmHg 41%
15:00 +30°C° 0 mm 6 m/s 745 mmHg 44%
16:00 +29°C° 0 mm 5 m/s 745 mmHg 46%
17:00 +28°C° 0 mm 5 m/s 745 mmHg 50%
18:00 +27°C° 0 mm 5 m/s 745 mmHg 55%
19:00 +26°C° 0 mm 4 m/s 745 mmHg 59%
20:00 +23°C° 0 mm 4 m/s 745 mmHg 64%
21:00 +22°C° 0 mm 4 m/s 745 mmHg 68%
22:00 +21°C° 0 mm 3 m/s 745 mmHg 73%
23:00 +20°C° 0.1 mm 3 m/s 745 mmHg 78%

Depois de amanhã, 27 Julho, Terça-feira

Tempo Temperatura Precipitação Vento Pressão Humidade
00:00 +19°C° 0.1 mm 3 m/s 744 mmHg 84%
01:00 +19°C° 0.1 mm 3 m/s 744 mmHg 90%
02:00 +19°C° 0.1 mm 3 m/s 744 mmHg 92%
03:00 +18°C° 0.1 mm 3 m/s 744 mmHg 93%
04:00 +18°C° 0.1 mm 3 m/s 744 mmHg 95%
05:00 +19°C° 0.1 mm 3 m/s 744 mmHg 91%
06:00 +20°C° 0.1 mm 3 m/s 744 mmHg 87%
07:00 +22°C° 0.1 mm 3 m/s 744 mmHg 83%
08:00 +24°C° 0 mm 3 m/s 744 mmHg 76%
09:00 +26°C° 0 mm 3 m/s 744 mmHg 69%
10:00 +28°C° 0 mm 3 m/s 744 mmHg 61%
11:00 +28°C° 0.7 mm 3 m/s 744 mmHg 61%
12:00 +29°C° 0.7 mm 3 m/s 744 mmHg 60%
13:00 +29°C° 0.7 mm 3 m/s 743 mmHg 60%
14:00 +29°C° 0.3 mm 3 m/s 743 mmHg 57%
15:00 +30°C° 0.3 mm 3 m/s 743 mmHg 54%
16:00 +30°C° 0.3 mm 2 m/s 743 mmHg 52%
17:00 +28°C° 0.1 mm 2 m/s 743 mmHg 58%
18:00 +27°C° 0.1 mm 3 m/s 743 mmHg 64%
19:00 +25°C° 0.1 mm 3 m/s 743 mmHg 70%
20:00 +24°C° 0.1 mm 2 m/s 743 mmHg 76%
21:00 +23°C° 0.1 mm 2 m/s 743 mmHg 82%
22:00 +21°C° 0.1 mm 1 m/s 743 mmHg 88%
23:00 +20°C° 0 mm 2 m/s 743 mmHg 89%

28 Julho, Quarta-feira

Tempo Temperatura Precipitação Vento Pressão Humidade
00:00 +19°C° 0 mm 2 m/s 743 mmHg 89%
01:00 +19°C° 0 mm 2 m/s 743 mmHg 89%
02:00 +18°C° 0 mm 2 m/s 743 mmHg 90%
03:00 +19°C° 0 mm 1 m/s 743 mmHg 90%
04:00 +18°C° 0 mm 1 m/s 743 mmHg 91%
05:00 +20°C° 0 mm 1 m/s 743 mmHg 84%
06:00 +22°C° 0 mm 1 m/s 743 mmHg 78%
07:00 +24°C° 0 mm 1 m/s 743 mmHg 72%
08:00 +25°C° 0 mm 1 m/s 743 mmHg 65%
09:00 +27°C° 0 mm 1 m/s 743 mmHg 58%
10:00 +28°C° 0 mm 1 m/s 743 mmHg 51%
11:00 +29°C° 0 mm 2 m/s 743 mmHg 50%
12:00 +29°C° 0 mm 2 m/s 743 mmHg 50%
13:00 +29°C° 0 mm 3 m/s 743 mmHg 50%
14:00 +27°C° 0.5 mm 4 m/s 743 mmHg 61%
15:00 +25°C° 0.5 mm 5 m/s 743 mmHg 72%
16:00 +22°C° 0.5 mm 6 m/s 743 mmHg 83%
17:00 +20°C° 1.8 mm 5 m/s 744 mmHg 87%
18:00 +19°C° 1.8 mm 3 m/s 744 mmHg 92%
19:00 +18°C° 1.8 mm 2 m/s 744 mmHg 96%
20:00 +18°C° 0.2 mm 2 m/s 744 mmHg 96%
21:00 +18°C° 0.2 mm 2 m/s 744 mmHg 96%
22:00 +17°C° 0.2 mm 2 m/s 744 mmHg 96%
23:00 +17°C° 0 mm 2 m/s 744 mmHg 96%

29 Julho, Quinta-feira

Tempo Temperatura Precipitação Vento Pressão Humidade
00:00 +17°C° 0 mm 2 m/s 744 mmHg 95%
01:00 +16°C° 0 mm 2 m/s 744 mmHg 95%
02:00 +16°C° 0 mm 2 m/s 744 mmHg 95%
03:00 +16°C° 0 mm 2 m/s 744 mmHg 94%
04:00 +16°C° 0 mm 2 m/s 744 mmHg 94%
05:00 +17°C° 0 mm 2 m/s 744 mmHg 90%
06:00 +19°C° 0 mm 2 m/s 744 mmHg 85%
07:00 +20°C° 0 mm 2 m/s 744 mmHg 81%
08:00 +22°C° 0.3 mm 3 m/s 744 mmHg 73%
09:00 +24°C° 0.3 mm 3 m/s 744 mmHg 66%
10:00 +26°C° 0.3 mm 4 m/s 744 mmHg 58%
11:00 +26°C° 0 mm 5 m/s 744 mmHg 53%
12:00 +27°C° 0 mm 6 m/s 744 mmHg 48%
13:00 +28°C° 0 mm 6 m/s 744 mmHg 43%
14:00 +27°C° 0 mm 5 m/s 744 mmHg 45%
15:00 +27°C° 0 mm 5 m/s 744 mmHg 46%
16:00 +26°C° 0 mm 4 m/s 744 mmHg 48%
17:00 +25°C° 0 mm 3 m/s 744 mmHg 54%
18:00 +23°C° 0 mm 2 m/s 744 mmHg 59%
19:00 +22°C° 0 mm 1 m/s 744 mmHg 65%
20:00 +21°C° 0 mm 1 m/s 744 mmHg 67%
21:00 +20°C° 0 mm 1 m/s 744 mmHg 69%
22:00 +19°C° 0 mm 1 m/s 744 mmHg 70%
23:00 +19°C° 0 mm 1 m/s 744 mmHg 70%

30 Julho, Sexta-feira

Tempo Temperatura Precipitação Vento Pressão Humidade
00:00 +18°C° 0 mm 2 m/s 744 mmHg 70%
01:00 +18°C° 0 mm 2 m/s 744 mmHg 70%
02:00 +19°C° 0 mm 2 m/s 744 mmHg 68%
03:00 +19°C° 0 mm 2 m/s 743 mmHg 66%
04:00 +19°C° 0 mm 2 m/s 743 mmHg 63%
05:00 +20°C° 0 mm 2 m/s 743 mmHg 63%
06:00 +22°C° 0 mm 3 m/s 743 mmHg 63%
07:00 +24°C° 0 mm 3 m/s 743 mmHg 62%
08:00 +25°C° 0 mm 3 m/s 743 mmHg 57%
09:00 +27°C° 0 mm 3 m/s 743 mmHg 53%
10:00 +29°C° 0 mm 3 m/s 743 mmHg 48%
11:00 +30°C° 0 mm 4 m/s 743 mmHg 46%
12:00 +32°C° 0 mm 5 m/s 742 mmHg 44%
13:00 +32°C° 0 mm 5 m/s 742 mmHg 41%
14:00 +30°C° 0 mm 5 m/s 742 mmHg 47%
15:00 +29°C° 0 mm 5 m/s 742 mmHg 53%
16:00 +28°C° 0 mm 4 m/s 742 mmHg 58%
17:00 +26°C° 0 mm 4 m/s 742 mmHg 63%
18:00 +25°C° 0 mm 4 m/s 742 mmHg 68%
19:00 +24°C° 0 mm 3 m/s 742 mmHg 73%
20:00 +22°C° 0.2 mm 3 m/s 742 mmHg 80%
21:00 +20°C° 0.2 mm 2 m/s 742 mmHg 87%
22:00 +19°C° 0.2 mm 2 m/s 742 mmHg 94%
23:00 +18°C° 0.1 mm 2 m/s 743 mmHg 94%
Mostrar mais

Necessitamos do seu Consentimento

A Meteoprog e os seus Fornecedores de Serviços podem armazenar e aceder a dados pessoais como cookies, identificadores do dispositivo ou outras tecnologias semelhantes existentes no seu dispositivo e processar estes dados para personalizar conteúdos e anúncios, assim como funcionalidades nas redes sociais e análise de tráfego.

  • Armazenar e/ou aceder a informações no seu dispositivo

    Os cookies, identificadores do dispositivo ou outras informações podem ser armazenados ou acedidos no seu dispositivo, para os fins acima indicados.

  • Anúncios e conteúdos personalizados, medição de anúncios e conteúdos, dados sobre o público-alvo e desenvolvimento de produtos

    Os anúncios e os conteúdos podem ser personalizados com base num perfil. Podem ser adicionados dados adicionais para uma maior personalização dos anúncios e dos conteúdos. A eficácia dos anúncios e dos conteúdos pode ser medida. Podem ser obtidas informações sobre o público que visualizou os anúncios e os conteúdos. Estes dados podem ser usados para desenvolver ou melhorar sistemas, softwares ou a experiência do utilizador.

Ao clicar em "Eu concordo”, permitirá o uso de cookies, identificadores do dispositivo e web beacons mencionados ou outras tecnologias semelhantes. As configurações do navegador do seu dispositivo podem ser alteradas.

Para certos fins, podem ser invocados interesses legítimos ao invés de consentimento. Pode ler mais informação sobre este assunto na nossa Política de Privacidade e Cookies.